| time (UTC) | temp F | wind direction | speed MPH | gust MPH | rain 1hr in | rain 24hr in | rain mn in | humidity % | barometer mb |
| 20260508202157 | 52 | 10 | 7.0 | 0.0 | 0.00 | 0.00 | 0.00 | 81 | |
| 20260508200232 | 52 | 20 | 7.0 | 0.0 | 0.00 | 0.00 | 0.00 | 81 | 1019.0 |
| 20260508193223 | 52 | 20 | 7.0 | 0.0 | 0.00 | 0.00 | 0.00 | 87 | 1019.0 |
| 20260508192256 | 54 | 20 | 7.0 | 0.0 | 0.00 | 0.00 | 0.00 | 81 | |
| 20260508190239 | 52 | 20 | 7.0 | 0.0 | 0.00 | 0.00 | 0.00 | 81 | 1019.0 |
| 20260508183231 | 54 | 20 | 6.0 | 0.0 | 0.00 | 0.00 | 0.00 | 76 | 1018.0 |
| 20260508182138 | 54 | 20 | 9.0 | 0.0 | 0.00 | 0.00 | 0.00 | 76 | |
| 20260508180234 | 54 | 20 | 8.0 | 0.0 | 0.00 | 0.00 | 0.00 | 76 | 1018.0 |
| 20260508173231 | 54 | 10 | 9.0 | 0.0 | 0.00 | 0.00 | 0.00 | 76 | 1018.0 |
| 20260508172156 | 54 | 360 | 9.0 | 0.0 | 0.00 | 0.00 | 0.00 | 81 | |
| 20260508170232 | 54 | 10 | 8.0 | 0.0 | 0.00 | 0.00 | 0.00 | 76 | 1018.0 |
| 20260508163223 | 55 | 10 | 10.0 | 0.0 | 0.00 | 0.00 | 0.00 | 71 | 1018.0 |
| 20260508162356 | 57 | 350 | 9.0 | 0.0 | 0.00 | 0.00 | 0.00 | 67 | |
| 20260508160241 | 57 | 10 | 10.0 | 0.0 | 0.00 | 0.00 | 0.00 | 67 | 1018.0 |
| 20260508153230 | 59 | 360 | 13.0 | 0.0 | 0.00 | 0.00 | 0.00 | 67 | 1018.0 |
| 20260508152158 | 57 | 20 | 12.0 | 0.0 | 0.00 | 0.00 | 0.00 | 71 | |
| 20260508150241 | 57 | 20 | 10.0 | 0.0 | 0.00 | 0.00 | 0.00 | 71 | 1018.0 |
| 20260508143231 | 57 | 30 | 10.0 | 0.0 | 0.00 | 0.00 | 0.00 | 71 | 1018.0 |
| 20260508142139 | 59 | 20 | 12.0 | 0.0 | 0.00 | 0.00 | 0.00 | 72 | |
| 20260508140235 | 59 | 10 | 10.0 | 0.0 | 0.00 | 0.00 | 0.00 | 72 | 1018.0 |
| 20260508133231 | 59 | 10 | 12.0 | 0.0 | 0.00 | 0.00 | 0.00 | 72 | 1018.0 |
| 20260508132255 | 59 | 360 | 12.0 | 0.0 | 0.00 | 0.00 | 0.00 | 72 | |
| 20260508130238 | 57 | 360 | 10.0 | 0.0 | 0.00 | 0.00 | 0.00 | 71 | 1018.0 |
| 20260508123230 | 59 | 60 | 8.0 | 0.0 | 0.00 | 0.00 | 0.00 | 67 | 1018.0 |
| 20260508122157 | 57 | 40 | 9.0 | 0.0 | 0.00 | 0.00 | 0.00 | 76 | |
| 20260508120232 | 55 | 50 | 7.0 | 0.0 | 0.00 | 0.00 | 0.00 | 76 | 1018.0 |
| 20260508113231 | 57 | 70 | 6.0 | 0.0 | 0.00 | 0.00 | 0.00 | 76 | 1018.0 |
| 20260508112158 | 57 | 60 | 7.0 | 0.0 | 0.00 | 0.00 | 0.00 | 76 | |
| 20260508110231 | 55 | 40 | 8.0 | 0.0 | 0.00 | 0.00 | 0.00 | 82 | 1018.0 |
| 20260508103231 | 55 | 30 | 6.0 | 0.0 | 0.00 | 0.00 | 0.00 | 82 | 1018.0 |
| 20260508102358 | 55 | 10 | 5.0 | 0.0 | 0.00 | 0.00 | 0.00 | 76 | |
| 20260508100239 | 54 | 10 | 6.0 | 0.0 | 0.00 | 0.00 | 0.00 | 81 | 1018.0 |
| 20260508093231 | 54 | 20 | 5.0 | 0.0 | 0.00 | 0.00 | 0.00 | 81 | 1018.0 |
| 20260508092156 | 54 | 10 | 7.0 | 0.0 | 0.00 | 0.00 | 0.00 | 87 | |
| 20260508090240 | 54 | 360 | 6.0 | 0.0 | 0.00 | 0.00 | 0.00 | 81 | 1018.0 |
| 20260508083231 | 54 | 50 | 5.0 | 0.0 | 0.00 | 0.00 | 0.00 | 81 | 1018.0 |
| 20260508082138 | 52 | 40 | 7.0 | 0.0 | 0.00 | 0.00 | 0.00 | 93 | |
| 20260508080239 | 52 | 30 | 7.0 | 0.0 | 0.00 | 0.00 | 0.00 | 87 | 1018.0 |
| 20260508073231 | 50 | 20 | 7.0 | 0.0 | 0.00 | 0.00 | 0.00 | 93 | 1017.0 |
| 20260508072259 | 50 | 360 | 7.0 | 0.0 | 0.00 | 0.00 | 0.00 | 99 | |
| 20260508070233 | 50 | 350 | 6.0 | 0.0 | 0.00 | 0.00 | 0.00 | 93 | 1017.0 |
| 20260508063224 | 50 | 350 | 7.0 | 0.0 | 0.00 | 0.00 | 0.00 | 93 | 1017.0 |
| 20260508062157 | 52 | 360 | 5.0 | 0.0 | 0.00 | 0.00 | 0.00 | 93 | |
| 20260508060227 | 50 | 360 | 5.0 | 0.0 | 0.00 | 0.00 | 0.00 | 100 | 1017.0 |
| 20260508054303 | 50 | 350 | 5.0 | 0.0 | 0.00 | 0.00 | 0.00 | 93 | 1017.0 |
| 20260508053224 | 50 | 350 | 5.0 | 0.0 | 0.00 | 0.00 | 0.00 | 100 | 1016.0 |
| 20260508052156 | 50 | 0 | 2.0 | 0.0 | 0.00 | 0.00 | 0.00 | 99 | |
| 20260508050232 | 50 | 0 | 2.0 | 0.0 | 0.00 | 0.00 | 0.00 | 93 | 1016.0 |
| 20260508044603 | 50 | 40 | 5.0 | 0.0 | 0.00 | 0.00 | 0.00 | 93 | 1016.0 |
| 20260508043224 | 50 | 50 | 5.0 | 0.0 | 0.00 | 0.00 | 0.00 | 93 | 1016.0 |
| 20260508042359 | 50 | 60 | 7.0 | 0.0 | 0.00 | 0.00 | 0.00 | 99 | |
| 20260508040233 | 50 | 60 | 7.0 | 0.0 | 0.00 | 0.00 | 0.00 | 93 | 1016.0 |
| 20260508033224 | 50 | 360 | 9.0 | 0.0 | 0.00 | 0.00 | 0.00 | 93 | 1016.0 |
| 20260508032156 | 50 | 350 | 9.0 | 0.0 | 0.00 | 0.00 | 0.00 | 99 | |
| 20260508030231 | 50 | 350 | 8.0 | 0.0 | 0.00 | 0.00 | 0.00 | 100 | 1016.0 |
| 20260508023224 | 50 | 350 | 7.0 | 0.0 | 0.00 | 0.00 | 0.00 | 100 | 1016.0 |
| 20260508022139 | 50 | 350 | 7.0 | 0.0 | 0.00 | 0.00 | 0.00 | 99 | |
| 20260508020242 | 50 | 350 | 6.0 | 0.0 | 0.00 | 0.00 | 0.00 | 100 | 1015.0 |
| 20260508013224 | 50 | 360 | 7.0 | 0.0 | 0.00 | 0.00 | 0.00 | 100 | 1015.0 |
| 20260508012255 | 52 | 20 | 5.0 | 0.0 | 0.00 | 0.00 | 0.00 | 99 | |
| 20260508010240 | 50 | 20 | 5.0 | 0.0 | 0.00 | 0.00 | 0.00 | 100 | 1015.0 |
| 20260508003223 | 50 | 30 | 6.0 | 0.0 | 0.00 | 0.00 | 0.00 | 100 | 1015.0 |
| 20260508002155 | 52 | 20 | 9.0 | 0.0 | 0.00 | 0.00 | 0.00 | 99 | |
| 20260508000234 | 52 | 30 | 10.0 | 0.0 | 0.00 | 0.00 | 0.00 | 93 | 1015.0 |
| 20260507233224 | 52 | 360 | 8.0 | 0.0 | 0.00 | 0.00 | 0.00 | 93 | 1015.0 |
| 20260507232156 | 52 | 0 | 5.0 | 0.0 | 0.00 | 0.00 | 0.00 | 99 | |
| 20260507230218 | 52 | 60 | 5.0 | 0.0 | 0.00 | 0.00 | 0.00 | 100 | 1015.0 |
| 20260507223224 | 52 | 360 | 6.0 | 0.0 | 0.00 | 0.00 | 0.00 | 100 | 1015.0 |
| 20260507222457 | 54 | 10 | 7.0 | 0.0 | 0.00 | 0.00 | 0.00 | 99 | |
| 20260507220236 | 52 | 20 | 8.0 | 0.0 | 0.00 | 0.00 | 0.00 | 100 | 1015.0 |
| 20260507213223 | 54 | 360 | 9.0 | 0.0 | 0.00 | 0.00 | 0.00 | 93 | 1015.0 |
| 20260507212158 | 54 | 360 | 7.0 | 0.0 | 0.00 | 0.00 | 0.00 | 99 | |
| 20260507210234 | 54 | 360 | 8.0 | 0.0 | 0.00 | 0.00 | 0.00 | 100 | 1015.0 |
| 20260507205104 | 54 | 360 | 8.0 | 0.0 | 0.00 | 0.00 | 0.00 | 100 | 1015.0 |
| 20260507204510 | 54 | 360 | 8.0 | 0.0 | 0.00 | 0.00 | 0.00 | 100 | 1015.0 |
| 20260507203223 | 54 | 320 | 6.0 | 0.0 | 0.00 | 0.00 | 0.00 | 100 | 1015.0 |